Flag for U.S.A. Weather past 2 weeks in Huntington Beach, California, U.S.A.

57 °F

Passing clouds.

Feels Like: 57 °F
Forecast: 48 / 61 °F
Wind: No wind

Location: John Wayne Airport-Orange County Airport

Current Time: Nov 26, 2015 at 7:04:59 PM

Latest Report: Nov 26, 2015 at 5:53 PM

Visibility: 10 mi

Pressure: 29.97 "Hg

Humidity: 47%

Dew point: 37 °F

Location of Huntington BeachLocation

Historic Weather in Huntington Beach — Graph


Huntington Beach temperature yesterday

Maximum temperature yesterday: 61 °F (at 1:53 PM)
Minimum temperature yesterday: 54 °F (at 10:53 PM)
Average temperature yesterday: 57 °F

Past Weeks' High & Low Weather Summary

High87 °F (Nov 21, 1:53 PM)90% (Nov 25, 1:53 AM)30.18 "Hg (Nov 25, 1:53 AM)
Low43 °F (Nov 17, 4:53 AM)11% (Nov 17, 11:53 AM)29.85 "Hg (Nov 25, 2:53 AM)
Average61 °F50%29.96 "Hg
* Reported Nov 11 5:53 PM — Nov 26 5:53 PM, Huntington Beach, Weather by CustomWeather, © 2015

Note: Actual official high and low records may vary slightly from our data, if they occured in-between our weather recording intervals... More about our weather records


Huntington Beach weather history for previous 24 hours

Time TempWeatherWind HumidityBarometerVisibility
5:53 PM
Thu, Nov 26
57 °FPassing clouds.No wind47%29.97 "Hg10 mi
4:53 PM58 °FPartly cloudy.5 mph50%29.96 "Hg10 mi
3:53 PM58 °FScattered clouds.7 mph54%29.96 "Hg10 mi
2:53 PM60 °FScattered clouds.9 mph47%29.96 "Hg10 mi
1:53 PM61 °FScattered clouds.12 mph46%29.96 "Hg10 mi
12:53 PM62 °FScattered clouds.6 mph50%29.96 "Hg10 mi
11:53 AM60 °FBroken clouds.6 mph49%29.98 "Hg10 mi
10:53 AM60 °FScattered clouds.3 mph49%30.01 "Hg10 mi
9:53 AM58 °FScattered clouds.6 mph50%30.02 "Hg10 mi
8:53 AM57 °FScattered clouds.No wind55%30.01 "Hg10 mi
7:53 AM53 °FScattered clouds.3 mph66%29.99 "Hg10 mi
6:53 AM50 °FScattered clouds.No wind74%29.98 "Hg10 mi
5:53 AM51 °FPassing clouds.No wind69%29.97 "Hg10 mi
4:53 AM52 °FPassing clouds.3 mph66%29.96 "Hg10 mi
3:53 AM52 °FOvercast.5 mph69%29.95 "Hg10 mi
2:53 AM52 °FMostly cloudy.7 mph72%29.94 "Hg10 mi
1:53 AM52 °FPassing clouds.6 mph69%29.94 "Hg10 mi
12:53 AM52 °FClear.6 mph69%29.94 "Hg10 mi
11:53 PM
Wed, Nov 25
54 °FPassing clouds.6 mph64%29.95 "Hg10 mi
10:53 PM54 °FPassing clouds.No wind64%29.95 "Hg10 mi
9:53 PM56 °FPassing clouds.No wind58%29.95 "Hg10 mi
8:53 PM56 °FPassing clouds.3 mph58%29.94 "Hg10 mi
7:53 PM57 °FPartly cloudy.No wind53%29.93 "Hg10 mi
Weather by CustomWeather, © 2015

See weather overviewHow to use our weather pages